Location: Sawmill Trailhead
(33.5800°N, 116.4497°W)
Time: 07:27:42
(UTC-08:00)

Uosat F - Visible Passes

Search period start: 30 January 2015 00:00
Search period end: 09 February 2015 00:00
Orbit: 751 x 762 km, 98.7° (Epoch: 28 January)

Date Brightness Start Highest point End Pass type
(mag) Time Alt. Az. Time Alt. Az. Time Alt. Az.
30 Jan 12.6 03:53:31 10° NNE 04:05:09 - S 03:56:59 32° ENE visible
30 Jan 12.2 05:32:57 10° NNW 05:36:44 21° WNW 05:37:02 21° WNW visible
31 Jan 13.9 03:16:01 10° ENE 03:17:33 13° ENE 03:17:33 13° ENE visible
31 Jan 11.1 04:52:49 10° N 04:57:36 52° WNW 04:57:36 52° WNW visible
01 Feb 11.5 04:13:32 10° NNE 04:25:44 - S 04:18:11 59° E visible
01 Feb 12.7 05:54:24 10° NW 05:56:53 13° WNW 05:58:14 12° W visible
02 Feb 13.2 03:35:09 10° NE 03:38:47 23° E 03:38:47 23° E visible
02 Feb 11.7 05:13:27 10° N 05:17:57 32° WNW 05:18:50 30° W visible
03 Feb 10.9 04:33:47 10° N 04:38:51 83° WNW 04:39:28 69° SSW visible
04 Feb 12.4 03:54:53 10° NNE 03:59:33 38° E 04:00:06 37° ESE visible
04 Feb 12.2 05:34:22 10° NNW 05:38:08 21° WNW 05:40:09 16° W visible
05 Feb 13.8 03:17:21 10° ENE 03:19:57 15° E 03:20:45 14° ESE visible
05 Feb 11.2 04:54:13 10° N 04:59:06 51° WNW 05:00:48 35° SW visible
06 Feb 11.4 04:14:55 10° NNE 04:19:55 62° E 04:21:29 42° SSE visible
06 Feb 12.7 05:55:51 10° NW 05:58:16 13° WNW 06:00:24 10° W visible
07 Feb 13.2 03:36:30 10° NE 03:40:29 24° E 03:42:12 20° SE visible
07 Feb 11.7 05:14:51 10° N 05:19:19 32° WNW 05:22:15 18° WSW visible
08 Feb 10.9 04:35:09 10° N 04:40:13 82° WNW 04:42:59 28° SSW visible
